Tracking 30298 objects as of 27-Apr-2025
HD Live streaming from Space Station
objects crossing your sky now

VANGUARD 3

Track VANGUARD 3 now!
10-day predictions
VANGUARD 3 is classified as:


NORAD ID: 20
Int'l Code: 1959-007A
Perigee: 514.6 km
Apogee: 3,224.2 km
Inclination: 33.3 °
Period: 124.1 minutes
Semi major axis: 8240 km
RCS: 0.654 m2 (medium)
Launch date: September 18, 1959
Source: United States (US)
Launch site: AIR FORCE EASTERN TEST RANGE (AFETR)
Your satellite tracking list
Your tracking list is empty




NASA's NSSDC Master Catalog

Two Line Element Set (TLE):
1    20U 59007A   25116.87329042  .00001119  00000-0  44645-3 0  9991
2    20  33.3490 324.3946 1644115 343.7375  11.5982 11.60602940436234
Source of the keplerian elements: AFSPC